Flag for U.S.A. Weather past 2 weeks in Angels Camp, California, U.S.A.

Now
60 °F

Sunny.


Feels Like: 60 °F
Forecast: 48 / 82 °F
Wind: 3 mph from Southeast

Location: Modesto City-County-Sham Field

Current Time: Mar 30, 2015 at 9:19:04 AM

Latest Report: Mar 30, 2015 at 8:53 AM


Visibility: 10 mi

Pressure: 30.02 "Hg

Humidity: 62%

Dew point: 47 °F

Location of Angels CampLocation

Historic Weather in Angels Camp — Graph

°F

Angels Camp temperature yesterday

Maximum temperature yesterday: 85 °F (at 3:53 PM)
Minimum temperature yesterday: 50 °F (at 6:53 AM)
Average temperature yesterday: 68 °F

Past Weeks' High & Low Weather Summary

 TemperatureHumidityPressure
High86 °F (Mar 27, 2:53 PM)93% (Mar 20, 7:53 AM)30.29 "Hg (Mar 20, 7:53 AM)
Low47 °F (Mar 19, 6:53 AM)16% (Mar 28, 5:53 PM)29.96 "Hg (Mar 18, 5:53 PM)
Average65 °F55%30.08 "Hg
* Reported Mar 15 7:53 AM — Mar 30 7:53 AM, Angels Camp, Weather by CustomWeather, © 2015

Note: Actual official high and low records may vary slightly from our data, if they occured in-between our weather recording intervals... More about our weather records

Advertising

Angels Camp weather history for previous 24 hours

 ConditionsComfort  
Time TempWeatherWind HumidityBarometerVisibility
7:53 AM
Mon, Mar 30
53 °FSunny.No wind80%30.01 "Hg10 mi
6:53 AM48 °FClear.6 mph89%29.99 "Hg10 mi
5:53 AM49 °FClear.No wind90%29.98 "Hg10 mi
4:53 AM52 °FClear.No wind83%29.98 "Hg8 mi
3:53 AM52 °FClear.No wind83%29.99 "Hg8 mi
2:53 AM55 °FClear.No wind77%29.99 "Hg10 mi
1:53 AM59 °FClear.No wind69%30.00 "Hg10 mi
12:53 AM60 °FClear.No wind62%30.00 "Hg10 mi
11:53 PM
Sun, Mar 29
66 °FClear.5 mph47%29.99 "Hg10 mi
10:53 PM67 °FClear.7 mph44%29.99 "Hg10 mi
9:53 PM65 °FClear.3 mph45%30.00 "Hg10 mi
8:53 PM67 °FClear.No wind41%30.00 "Hg10 mi
7:53 PM76 °FSunny.3 mph23%29.98 "Hg10 mi
6:53 PM80 °FSunny.9 mph20%29.97 "Hg10 mi
5:53 PM83 °FSunny.13 mph19%29.97 "Hg10 mi
4:53 PM85 °FSunny.10 mph20%29.96 "Hg10 mi
3:53 PM85 °FSunny.13 mph17%29.97 "Hg10 mi
2:53 PM83 °FSunny.10 mph22%29.99 "Hg10 mi
1:53 PM80 °FSunny.8 mph24%30.03 "Hg10 mi
12:53 PM78 °FSunny.12 mph25%30.06 "Hg10 mi
11:53 AM75 °FSunny.12 mph28%30.07 "Hg10 mi
10:53 AM72 °FSunny.10 mph33%30.09 "Hg10 mi
9:53 AM68 °FSunny.7 mph42%30.09 "Hg10 mi
Weather by CustomWeather, © 2015

See weather overviewHow to use our weather pages